Time,B instrument,Bx,By,Bz,sigma B,Ion instrument,Status,Tp_par,Tp_perp,carrot,r_sun,clat,clong,earth_he_angle,n_p,vp_x,vp_y,vp_z,vth_p_par,vth_p_perp
1980-10-10 00:06:08,-1,nan,nan,nan,nan,1,3,nan,nan,1700,0.86097252,-3.8014479,258.56323,90.832764,nan,310.625,-19.1608,23.5179,nan,nan
1980-10-10 00:16:56,-1,nan,nan,nan,nan,1,3,nan,nan,1700,0.8609274,-3.8021269,258.46506,90.83223,nan,312.289,-22.2412,20.0435,nan,nan
1980-10-10 00:27:44,-1,nan,nan,nan,nan,1,3,nan,nan,1700,0.86087781,-3.8028736,258.36682,90.83165,nan,312.96,-19.5915,21.1102,nan,nan
1980-10-10 00:38:32,-1,nan,nan,nan,nan,1,3,nan,nan,1700,0.86082822,-3.8036203,258.26468,90.83107,nan,313.757,-20.3666,22.5957,nan,nan
1980-10-10 00:49:20,-1,nan,nan,nan,nan,1,3,nan,nan,1700,0.86077863,-3.8043671,258.16644,90.83049,nan,309.033,-18.1203,19.0062,nan,nan
1980-10-10 01:00:08,-1,nan,nan,nan,nan,1,3,nan,nan,1700,0.86072904,-3.8051147,258.06821,90.82991,nan,307.915,-19.9885,18.031,nan,nan
1980-10-10 01:10:56,-1,nan,nan,nan,nan,1,3,nan,nan,1700,0.86068386,-3.8057938,257.96609,90.829376,nan,324.603,-8.88608,22.0977,nan,nan
1980-10-10 01:21:44,-1,nan,nan,nan,nan,1,3,nan,nan,1700,0.86063421,-3.8065405,257.86786,90.828796,nan,322.31,-6.64078,7.56436,nan,nan
1980-10-10 01:32:32,-1,nan,nan,nan,nan,1,3,nan,nan,1700,0.86058456,-3.8072872,257.76965,90.828232,nan,321.633,-11.5654,7.18128,nan,nan
1980-10-10 01:43:20,-1,nan,nan,nan,nan,1,3,nan,nan,1700,0.86053491,-3.8080339,257.66751,90.827652,nan,323.022,-1.23747,14.7286,nan,nan
1980-10-10 01:54:08,-1,nan,nan,nan,nan,1,3,nan,nan,1700,0.86048526,-3.8087807,257.56927,90.827072,nan,322.665,-3.05721,18.546,nan,nan
1980-10-10 01:57:35,-1,nan,nan,nan,nan,1,4,nan,nan,1700,0.86047173,-3.8089848,257.53787,90.82692,nan,nan,nan,nan,nan,nan
1980-10-10 02:04:56,-1,nan,nan,nan,nan,1,3,nan,nan,1700,0.86044008,-3.8094597,257.4711,90.826553,nan,324.1,1.13218,10.5897,nan,nan
1980-10-10 02:08:23,-1,nan,nan,nan,nan,1,3,nan,nan,1700,0.8614071,-4.0695901,257.22375,90.610474,nan,324.099,1.13256,10.5897,nan,nan
1980-10-10 02:15:44,1,0.6,-3.7,-8.7,0.0,1,1,61661.8,63269.0,1700,0.86039037,-3.8102074,257.36896,90.825974,21.6062,329.882,-4.77115,15.0194,31.9055,32.3187
1980-10-10 02:26:32,1,0.1,-2.75,-11.6,0.206155,1,1,30343.7,67062.0,1700,0.86034065,-3.8109541,257.27072,90.825409,13.9293,332.563,7.30697,-0.749751,22.3817,33.2733
1980-10-10 02:52:02,1,-2.38333,-8.81667,-10.0167,0.578072,1,1,59301.0,50062.3,1700,0.86022311,-3.8127193,257.035,90.824051,22.5016,332.039,4.43075,20.697,31.2888,28.7484
1980-10-10 02:53:23,1,-2.95,-11.8333,-7.53333,0.200693,1,1,98269.8,48739.7,1700,0.86021858,-3.8127871,257.02322,90.82399,24.6396,332.046,7.46499,24.8523,40.278,28.3661
1980-10-10 02:54:44,1,-3.375,-9.95,-9.85,0.277263,1,1,90133.1,57774.0,1700,0.86021411,-3.8128548,257.01144,90.823944,21.2605,331.227,6.45284,16.7923,38.5745,30.8833
1980-10-10 02:57:28,1,-3.92,-10.72,-9.68,0.35327,1,1,85437.9,54468.5,1700,0.86020052,-3.8130589,256.98395,90.823792,20.8112,330.805,5.47285,19.9539,37.5563,29.9868
1980-10-10 02:58:49,1,-4.5,-10.9,-9.36667,0.149071,1,1,85844.4,45388.1,1700,0.86019599,-3.8131266,256.97217,90.82373,20.1837,328.595,6.91839,23.081,37.6456,27.3734
1980-10-10 03:00:10,1,-3.68,-10.56,-9.44,0.272764,1,1,82018.0,53744.4,1700,0.86018699,-3.8132629,256.96036,90.823639,22.2358,331.057,6.55083,19.7612,36.797,29.7868
1980-10-10 03:01:31,1,-4.23333,-11.1,-8.76667,0.323179,1,1,82333.9,47814.2,1700,0.86018246,-3.8133307,256.94858,90.823578,21.4153,330.709,3.63643,20.8733,36.8678,28.0955
1980-10-10 03:02:52,1,-4.33333,-10.65,-8.96667,0.300463,1,1,98630.6,54459.2,1700,0.86017793,-3.8133984,256.93683,90.823532,24.9841,330.179,-0.120409,20.8508,40.3519,29.9843
1980-10-10 03:04:13,1,-4.23333,-11.25,-8.56667,0.289156,1,1,113795.0,48347.4,1700,0.86016887,-3.8135347,256.92499,90.823425,25.3652,331.512,3.25688,25.0553,43.3431,28.2517
1980-10-10 03:05:34,1,-4.01667,-11.4333,-8.48333,0.41833,1,1,80263.8,53281.6,1700,0.86016434,-3.8136024,256.90933,90.82338,25.2352,332.856,2.04994,22.2946,36.4014,29.6583
1980-10-10 03:06:55,1,-3.75,-10.9833,-8.65,0.350793,1,1,68892.3,46397.0,1700,0.86015981,-3.8136702,256.89755,90.823318,23.537,332.174,2.51481,20.8049,33.7243,27.676
1980-10-10 03:08:16,1,-3.86667,-10.8833,-8.8,0.774776,1,1,63815.1,49283.7,1700,0.86015075,-3.8138065,256.88571,90.823212,24.7093,332.329,1.41334,24.0141,32.4578,28.5239
1980-10-10 03:09:37,1,-3.35,-11.5667,-8.4,0.348409,1,1,74019.5,45529.9,1700,0.86014622,-3.8138742,256.87396,90.823166,22.9075,332.838,1.8326,23.6931,34.9567,27.4161
1980-10-10 03:10:58,1,-3.11667,-11.6833,-8.33333,0.297209,1,1,105270.0,51709.6,1700,0.86014169,-3.813942,256.86218,90.82312,25.0815,331.728,5.98926,26.8338,41.688,29.2175
1980-10-10 03:12:19,1,-2.76667,-12.4167,-8.11667,0.343996,1,1,87507.7,47388.6,1700,0.86013269,-3.8140783,256.85037,90.823013,23.5467,329.735,6.01114,28.2415,38.0085,27.9702
1980-10-10 03:13:40,1,-2.71667,-12.0,-8.33333,0.2651,1,1,115502.0,54617.4,1700,0.86012816,-3.814146,256.83469,90.822952,26.046,330.95,2.69763,27.8032,43.6669,30.0278
1980-10-10 03:15:01,1,-3.05,-12.7,-7.73333,0.30777,1,1,108393.0,50624.0,1700,0.8601191,-3.8142824,256.82288,90.822861,24.6676,332.008,4.84036,29.1866,42.3018,28.9092
1980-10-10 03:16:22,1,-3.9,-13.25,-7.6,0.221736,1,1,144141.0,57227.5,1700,0.86011457,-3.8143501,256.8111,90.8228,22.2675,332.539,1.47726,27.3233,48.7811,30.7369
1980-10-10 03:17:43,1,-3.33333,-12.6333,-8.0,0.210819,1,1,110900.0,50350.1,1700,0.86011004,-3.8144178,256.79932,90.822754,23.3349,331.047,1.16876,23.6157,42.7881,28.8309
1980-10-10 03:19:04,1,-3.03333,-12.6667,-8.13333,0.305505,1,1,131791.0,53196.1,1700,0.86010098,-3.8145542,256.78751,90.822647,24.9321,332.388,1.92492,26.0025,46.6446,29.6345
1980-10-10 03:20:25,1,-3.2,-13.1833,-7.86667,0.311359,1,1,97841.8,52988.8,1700,0.86009651,-3.8146219,256.77573,90.822601,20.5064,330.957,-3.29502,21.3769,40.1902,29.5767
1980-10-10 03:21:46,1,-3.36667,-14.15,-7.1,0.380424,1,1,84177.1,49292.5,1700,0.86009198,-3.8146896,256.76004,90.82254,19.9577,330.526,-6.75821,24.6062,37.2782,28.5265
1980-10-10 03:23:07,1,-3.11667,-15.8333,-5.98333,0.521217,1,1,55885.1,51996.8,1700,0.86008292,-3.814826,256.74823,90.822433,17.2741,329.332,-17.0882,19.2598,30.3743,29.2986
1980-10-10 03:24:28,1,-4.6,-15.75,-5.2,0.281366,1,1,55089.3,54094.8,1700,0.86007839,-3.8148937,256.73645,90.822388,17.4697,322.5,-21.6284,21.9711,30.1572,29.8838
1980-10-10 03:25:49,1,-4.21667,-15.9333,-5.25,0.453995,1,1,44852.6,53461.9,1700,0.86007386,-3.8149614,256.7247,90.822342,17.893,319.072,-17.4634,23.9221,27.2114,29.7085
1980-10-10 03:27:10,1,-2.75,-15.8,-6.5,0.314907,1,1,35565.8,51561.7,1700,0.8600648,-3.8150978,256.71286,90.822235,14.2965,322.752,-21.4141,18.6997,24.2312,29.1757
1980-10-10 03:28:31,1,-3.8,-15.5833,-6.18333,0.304594,1,1,46797.5,55360.1,1700,0.86006027,-3.8151655,256.70108,90.822174,17.071,316.191,-21.3758,19.4842,27.7952,30.2313
1980-10-10 03:29:52,1,-3.83333,-15.7,-5.65,0.441273,1,1,37857.3,51709.7,1700,0.86005574,-3.8152332,256.68542,90.822128,15.7259,323.107,-23.5768,18.7533,24.9996,29.2176
1980-10-10 03:31:13,1,-4.03333,-14.6833,-5.53333,0.403113,1,1,52797.8,62708.4,1700,0.86004674,-3.8153696,256.67358,90.822021,20.0123,324.137,-20.7062,10.7438,29.5234,32.1752
1980-10-10 03:32:34,1,-4.26667,-14.8,-5.4,0.292499,1,1,55827.0,62412.0,1700,0.86004221,-3.8154373,256.66183,90.821976,23.3712,323.579,-19.8977,10.4396,30.3585,32.099
1980-10-10 03:33:55,1,-3.88333,-15.1167,-4.78333,0.500833,1,1,56134.9,60277.3,1700,0.86003768,-3.815505,256.65005,90.821915,21.6854,323.279,-19.1171,11.8059,30.4421,31.5453
1980-10-10 03:35:16,1,-5.06667,-14.8167,-5.36667,0.25,1,1,53734.9,60373.9,1700,0.86002862,-3.8156414,256.63824,90.821823,22.1029,321.17,-20.2838,12.9516,29.7842,31.5706
1980-10-10 03:36:37,1,-4.76667,-14.6667,-5.23333,0.216025,1,1,51204.7,64621.4,1700,0.86002409,-3.8157091,256.62646,90.821762,22.1605,323.928,-18.4809,9.61842,29.0745,32.6622
1980-10-10 03:37:58,1,-5.16667,-14.8,-5.3,0.169967,1,1,58804.6,63142.4,1700,0.86001956,-3.8157768,256.61078,90.821716,22.6989,322.954,-19.0245,10.5717,31.1576,32.2863
1980-10-10 03:39:19,1,-4.63333,-15.05,-4.6,0.240947,1,1,56022.6,65798.5,1700,0.8600105,-3.8159132,256.59897,90.821609,23.2173,324.651,-20.306,8.63955,30.4116,32.9584
1980-10-10 03:40:40,1,-4.61667,-15.5,-4.53333,0.305959,1,1,59034.5,65816.4,1700,0.86000603,-3.8159809,256.58719,90.821564,23.4154,323.769,-20.2824,9.45874,31.2184,32.9629
1980-10-10 03:42:01,1,-4.88333,-14.0833,-5.76667,0.261406,1,1,62691.7,64410.6,1700,0.85999697,-3.8161173,256.57538,90.821457,24.0099,323.576,-19.9168,10.1281,32.1709,32.6089
1980-10-10 03:43:22,1,-5.28571,-16.4,-4.85714,0.386507,1,1,64892.4,46804.7,1700,0.85999244,-3.816185,256.5636,90.821396,17.8349,322.021,-19.8145,6.63656,32.7307,27.7973
1980-10-10 03:44:43,1,-5.36667,-16.45,-4.73333,0.200693,1,1,69193.2,54095.6,1700,0.85998791,-3.8162527,256.55182,90.82135,18.4747,322.709,-18.4052,8.0183,33.7979,29.884
1980-10-10 03:46:04,1,-5.05,-16.65,-4.53333,0.408928,1,1,62111.3,54716.9,1700,0.85997885,-3.8163891,256.5361,90.821243,17.9414,322.61,-20.639,8.5123,32.0216,30.0551
1980-10-10 03:47:25,1,-5.5,-17.0667,-4.21667,0.271314,1,1,55611.0,48926.4,1700,0.85997432,-3.8164568,256.52432,90.821198,16.1686,322.715,-11.2137,7.76301,30.2997,28.4203
1980-10-10 03:48:46,1,-5.26667,-17.2833,-4.0,0.351584,1,1,59076.8,48007.8,1700,0.85996979,-3.8165245,256.51254,90.821136,15.6186,320.401,-13.6684,11.2015,31.2296,28.1523
1980-10-10 03:50:07,1,-5.48333,-17.0,-4.41667,0.315348,1,1,56627.8,45296.4,1700,0.85996079,-3.8166609,256.50073,90.821045,14.6434,323.561,-10.2051,11.4969,30.5754,27.3458
1980-10-10 03:51:28,1,-6.63333,-16.7,-3.25,0.328718,1,1,72593.2,48270.9,1700,0.85995626,-3.8167286,256.48895,90.820984,16.9988,322.015,-11.9269,9.95925,34.6183,28.2293
1980-10-10 03:52:49,1,-6.51667,-16.9333,-3.36667,0.25658,1,1,61896.5,45419.9,1700,0.85995173,-3.8167963,256.4772,90.820938,16.2562,326.108,-11.2736,8.27973,31.9662,27.383
1980-10-10 03:54:10,1,-6.4,-17.2667,-3.03333,0.34801,1,1,57967.6,47465.7,1700,0.85994267,-3.8169327,256.46146,90.820831,15.3413,325.961,-12.0588,7.41289,30.935,27.9929
1980-10-10 03:55:31,1,-6.53333,-17.5833,-2.7,0.305959,1,1,53373.5,42049.7,1700,0.85993814,-3.8170004,256.44971,90.820786,15.3668,325.958,-6.96932,10.2196,29.6839,26.3475
1980-10-10 05:07:02,-1,nan,nan,nan,nan,1,3,nan,nan,1700,0.85961199,-3.8218937,255.79366,90.817093,nan,317.92,-14.8333,19.9575,nan,nan
1980-10-10 05:08:23,1,-4.98,-14.46,-0.36,0.52,1,1,69685.4,47846.8,1700,0.85960746,-3.8219624,255.77798,90.817047,20.0305,314.119,-21.1596,23.372,33.9179,28.1051
1980-10-10 05:09:44,1,-5.16667,-13.9833,-1.55,0.373423,1,1,72823.4,49869.5,1700,0.85960293,-3.8220301,255.7662,90.816986,21.3308,315.045,-13.6273,16.5889,34.6732,28.693
1980-10-10 05:11:05,1,-5.44286,-13.2286,-3.12857,1.65295,1,1,58575.6,49537.7,1700,0.85959387,-3.8221655,255.75439,90.816895,19.0255,313.908,-14.1358,11.2903,31.0968,28.5974
1980-10-10 05:12:26,1,-2.08333,-10.5333,-5.9,0.341971,1,1,40946.7,65958.3,1700,0.85958934,-3.8222342,255.74261,90.816833,18.8171,324.503,2.21214,12.3003,25.9996,32.9984
1980-10-10 05:16:30,1,-3.7,-13.7333,5.85,1.51153,1,1,71339.7,57444.9,1700,0.85957569,-3.8224382,255.7034,90.816681,21.6598,321.098,2.78177,6.44591,34.3181,30.7952
1980-10-10 05:16:38,1,-2.86667,-13.9833,5.11667,1.76399,1,1,60006.3,56512.3,1700,0.85957116,-3.822506,255.70335,90.816635,19.9903,320.261,-13.0711,25.365,31.4743,30.5443
1980-10-10 05:17:52,1,-3.35,-14.0667,4.76667,0.231541,1,1,77625.7,68058.1,1700,0.86055303,-4.0821118,255.47543,90.600433,17.0871,321.475,-4.49463,17.8008,35.7982,33.5195
1980-10-10 05:17:59,1,-3.33333,-14.0667,4.63333,0.251661,1,1,79936.8,63521.0,1700,0.85956663,-3.8225737,255.69159,90.816589,16.6083,316.09,-0.644029,20.5009,36.3272,32.383
1980-10-10 05:19:13,1,-3.0,-13.8833,4.76667,0.23863,1,1,78700.1,60020.4,1700,0.85955757,-3.82271,255.67976,90.816483,16.8668,320.018,-1.52327,17.8191,36.045,31.478
1980-10-10 05:20:34,1,-2.2,-14.0,4.96667,0.149071,1,1,71334.2,65080.1,1700,0.85955304,-3.8227777,255.668,90.816437,17.0488,320.958,-4.02777,17.2082,34.3168,32.778
1980-10-10 05:21:55,1,-2.66667,-13.8333,4.9,0.2848,1,1,74970.2,58626.2,1700,0.85954851,-3.8228455,255.65622,90.816376,16.7993,319.825,-0.153323,16.812,35.1805,31.1103
1980-10-10 05:23:16,1,-2.4,-14.0667,4.7,0.249444,1,1,85697.0,61428.0,1700,0.85953945,-3.8229818,255.64441,90.816284,17.5638,321.493,-3.57317,16.6222,37.6132,31.845
1980-10-10 05:24:37,1,-1.61667,-13.7667,5.2,0.311359,1,1,79609.8,67766.3,1700,0.85953492,-3.8230495,255.62872,90.816223,18.0547,324.082,-3.45839,16.3901,36.2528,33.4476
1980-10-10 05:25:58,1,-1.63333,-13.8667,5.26667,0.34641,1,1,95147.4,66673.2,1700,0.85953033,-3.8231173,255.61696,90.816177,18.8088,322.799,-2.20075,16.129,39.633,33.1767
1980-10-10 05:27:19,1,-1.53333,-13.9333,4.38333,0.411299,1,1,81105.9,65585.5,1700,0.85952127,-3.8232536,255.60513,90.816071,17.6457,322.252,-3.3869,14.8676,36.5918,32.905
1980-10-10 05:28:40,1,-1.15,-13.7,4.2,0.368556,1,1,88554.6,65092.0,1700,0.85951674,-3.8233213,255.59337,90.816025,18.3569,324.313,-2.88884,14.3643,38.2352,32.781
1980-10-10 05:30:01,1,-1.31667,-13.5167,4.78333,0.560506,1,1,81710.7,63817.5,1700,0.85950768,-3.8234577,255.58154,90.815918,17.9255,324.486,-2.49517,13.8929,36.728,32.4585
1980-10-10 05:31:22,1,-1.05,-13.6167,4.71667,0.567401,1,1,90551.7,68823.8,1700,0.85950315,-3.8235254,255.56978,90.815872,18.3135,327.505,-1.23321,12.5222,38.664,33.7076
1980-10-10 05:32:43,1,-0.15,-13.9667,4.38333,0.565194,1,1,69355.7,64164.8,1700,0.85949862,-3.8235931,255.55409,90.815811,16.1373,321.767,0.495562,14.4365,33.8375,32.5466
1980-10-10 05:34:04,1,-0.916667,-13.6833,5.4,0.335824,1,1,84170.6,68001.3,1700,0.85948956,-3.8237295,255.54228,90.81572,18.0801,323.722,0.678852,15.1491,37.2768,33.5055
1980-10-10 05:35:25,1,-0.683333,-13.4667,5.75,0.340751,1,1,71015.6,62410.5,1700,0.85948503,-3.8237972,255.5305,90.815659,16.2726,323.986,3.25445,16.5645,34.2401,32.0986
1980-10-10 05:36:46,1,-0.733333,-13.2,5.73333,0.266667,1,1,98516.3,60872.7,1700,0.8594805,-3.8238649,255.51874,90.815613,17.5355,323.029,1.15776,15.3109,40.3285,31.7007
1980-10-10 05:38:07,1,-2.9,-14.0,3.03333,0.188562,1,1,91955.3,62885.5,1700,0.85947138,-3.8240013,255.50691,90.815506,16.3264,319.962,-3.29076,13.929,38.9625,32.2206
1980-10-10 05:39:28,1,-2.33333,-13.8333,2.9,0.362093,1,1,76956.6,62309.4,1700,0.85946685,-3.824069,255.49515,90.81546,15.2697,320.408,-5.19689,12.6487,35.6435,32.0726
1980-10-10 05:40:49,1,-2.66667,-13.6667,2.5,0.253859,1,1,89591.3,56933.7,1700,0.85946232,-3.8241367,255.47948,90.815414,15.9624,320.693,-3.01748,14.0004,38.4584,30.6579
1980-10-10 05:42:10,1,-2.23333,-13.8667,2.96667,0.619139,1,1,81220.0,58009.5,1700,0.85945326,-3.8242731,255.46765,90.815308,16.5474,321.141,-4.37964,12.3604,36.6176,30.9462
1980-10-10 05:43:31,1,-2.35,-14.1667,3.16667,0.231541,1,1,63063.3,56464.4,1700,0.85944873,-3.8243408,255.45589,90.815262,14.2492,319.108,-6.18869,15.2714,32.2661,30.5313
1980-10-10 05:44:52,1,-2.5,-14.0,3.36667,0.268742,1,1,66588.3,57478.1,1700,0.8594442,-3.8244085,255.44411,90.815201,14.4996,320.032,-6.83402,13.9247,33.1556,30.8041
1980-10-10 05:46:13,1,-2.3,-13.7333,3.1,0.334996,1,1,79582.8,56426.3,1700,0.85943514,-3.8245449,255.43228,90.815094,14.607,321.544,-3.28179,12.0067,36.2466,30.521
1980-10-10 05:47:34,1,-2.78333,-13.4,3.63333,0.153659,1,1,65147.3,55568.4,1700,0.85943061,-3.8246126,255.42052,90.815048,14.0204,321.601,-6.90868,13.0364,32.7949,30.2881
1980-10-10 05:48:55,1,-2.68333,-13.3833,3.5,0.243812,1,1,71476.9,55787.1,1700,0.85942602,-3.8246803,255.40485,90.815002,14.7696,319.757,-6.56946,12.4406,34.3511,30.3476
1980-10-10 05:50:16,1,-1.88333,-13.4167,1.68333,0.451848,1,1,75501.4,61816.3,1700,0.85941696,-3.8248167,255.39302,90.814896,16.3166,321.304,-4.35152,14.6798,35.3049,31.9455
1980-10-10 05:51:37,1,-1.88333,-13.5,1.5,0.318416,1,1,71377.0,59213.1,1700,0.85941243,-3.8248844,255.38126,90.81485,15.4018,322.426,-4.26276,12.4118,34.3271,31.2656
1980-10-10 05:52:58,1,-2.48333,-12.9167,2.1,0.222361,1,1,81757.3,57554.4,1700,0.8594079,-3.8249521,255.36948,90.814789,17.1666,321.893,-2.97891,11.2756,36.7385,30.8246
1980-10-10 05:54:19,-1,nan,nan,nan,nan,1,4,nan,nan,1700,0.85939884,-3.8250885,255.35767,90.814697,nan,nan,nan,nan,nan,nan
1980-10-10 05:55:40,1,1.66667,-3.78333,-5.26667,0.314907,1,1,82497.9,52996.8,1700,0.85939431,-3.8251562,255.34589,90.814636,27.6479,325.276,23.4428,14.6484,36.9045,29.579
1980-10-10 05:57:01,1,1.78333,-4.26667,-4.73333,0.37305,1,1,82486.5,53083.6,1700,0.85938525,-3.8252926,255.33017,90.814545,28.9115,326.376,26.2466,12.4774,36.9019,29.6032
1980-10-10 05:58:22,1,1.73333,-3.3,-5.06667,0.307318,1,1,78614.0,56659.3,1700,0.85938072,-3.8253603,255.31839,90.814484,29.3066,326.762,26.4108,9.73192,36.0253,30.5839
1980-10-10 05:59:43,1,2.86667,-4.46667,-4.5,0.194365,1,1,82407.9,53403.8,1700,0.85937619,-3.825428,255.30663,90.814438,29.1524,323.718,30.4904,9.25583,36.8844,29.6923
1980-10-10 06:01:04,1,1.16667,-5.76667,-3.9,2.01025,1,1,64993.2,57571.8,1700,0.85936707,-3.8255644,255.2948,90.814331,29.4421,325.11,31.3881,9.03775,32.7561,30.8292
1980-10-10 06:02:25,1,0.0333333,-9.8,-0.933333,0.301846,1,1,80917.1,54356.9,1700,0.85936254,-3.8256321,255.28304,90.814285,28.4349,325.374,27.3205,-0.013038,36.5492,29.9561
1980-10-10 06:03:46,1,-0.0428571,-9.45714,-1.81429,1.01439,1,1,76627.7,51809.6,1700,0.85935801,-3.8257008,255.27127,90.81424,27.2513,324.868,23.9729,5.98937,35.5673,29.2458
1980-10-10 06:05:07,1,0.0857143,-7.95714,-3.78571,1.25438,1,1,84086.3,53615.2,1700,0.85934895,-3.8258362,255.25554,90.814133,30.6689,325.72,24.7299,7.23825,37.2581,29.751
1980-10-10 06:06:28,1,0.783333,-2.13333,-5.96667,0.955249,1,1,75610.8,57403.3,1700,0.85934436,-3.8259039,255.24377,90.814087,28.1844,326.359,24.234,9.65085,35.3305,30.7841
1980-10-10 06:07:49,1,-3.51667,-9.9,0.45,0.557275,1,1,110076.0,59859.2,1700,0.85933983,-3.8259726,255.23199,90.814026,29.4282,326.136,22.8317,-3.66293,42.629,31.4357
1980-10-10 06:09:10,1,0.0666667,-4.88333,-5.78333,0.567157,1,1,74732.0,56623.5,1700,0.85933077,-3.826108,255.22018,90.813934,27.8939,325.098,21.2318,15.618,35.1246,30.5743
1980-10-10 06:10:31,1,1.08571,-4.34286,-6.17143,0.447214,1,1,66869.9,58592.2,1700,0.85932624,-3.8261766,255.20842,90.813889,26.9137,325.718,24.9833,11.7311,33.2256,31.1012
1980-10-10 06:11:52,1,1.96667,-1.4,-5.16667,0.845248,1,1,88900.3,55909.7,1700,0.85932165,-3.8262444,255.19664,90.813828,29.9643,325.329,25.0978,6.39245,38.3098,30.381
1980-10-10 06:13:13,-1,nan,nan,nan,nan,1,3,nan,nan,1700,0.85931259,-3.8263807,255.18092,90.813736,nan,324.478,23.6333,14.4557,nan,nan
1980-10-10 06:17:16,-1,nan,nan,nan,nan,1,3,nan,nan,1700,0.85929441,-3.8266525,255.14555,90.813522,nan,319.663,20.7119,18.7116,nan,nan
1980-10-10 06:18:37,-1,nan,nan,nan,nan,1,3,nan,nan,1700,0.85928988,-3.8267202,255.13379,90.813477,nan,321.318,21.0934,16.425,nan,nan
1980-10-10 06:19:58,-1,nan,nan,nan,nan,1,3,nan,nan,1700,0.85928535,-3.8267889,255.12202,90.813431,nan,322.749,22.4337,15.8444,nan,nan
1980-10-10 06:21:19,-1,nan,nan,nan,nan,1,3,nan,nan,1700,0.85927629,-3.8269243,255.10629,90.813324,nan,319.017,17.4844,18.3423,nan,nan
1980-10-10 06:22:40,-1,nan,nan,nan,nan,1,3,nan,nan,1700,0.85927171,-3.826993,255.09453,90.813278,nan,319.023,15.687,19.0318,nan,nan
1980-10-10 06:24:01,1,-2.65,-6.91667,-3.96667,0.407567,1,1,88185.8,61425.4,1700,0.85926265,-3.8271284,255.0827,90.813171,28.3123,313.091,18.4121,20.1735,38.1555,31.8443
1980-10-10 06:25:22,1,-1.86667,-6.81667,-4.46667,0.314907,1,1,94126.0,56636.7,1700,0.85925812,-3.8271961,255.07094,90.813126,29.3323,318.138,19.3252,18.8661,39.4196,30.5778
1980-10-10 06:26:43,1,-0.433333,-5.51667,-5.0,0.622049,1,1,89161.0,56482.0,1700,0.85925359,-3.8272648,255.05917,90.81308,29.3805,321.368,25.1576,17.3302,38.3659,30.5361
1980-10-10 06:28:04,1,-1.93333,-5.1,-5.03333,0.473756,1,1,93714.7,53070.5,1700,0.85924447,-3.8274002,255.04735,90.812973,28.0136,318.057,26.393,17.9655,39.3334,29.5995
1980-10-10 06:29:25,1,-0.783333,-5.18333,-5.35,0.839808,1,1,97895.2,56473.7,1700,0.85923994,-3.8274689,255.03168,90.812927,28.957,315.981,22.1146,21.4167,40.2012,30.5338
1980-10-10 06:30:46,1,0.183333,-5.93333,-4.76667,0.292973,1,1,97100.1,53613.7,1700,0.85923541,-3.8275366,255.01991,90.812881,29.293,320.626,21.6036,18.6955,40.0376,29.7506
1980-10-10 06:32:07,1,1.03333,-4.11667,-3.46667,2.16468,1,1,98210.0,67424.1,1700,0.85922635,-3.827673,255.00809,90.812775,26.2194,320.946,19.9437,13.7809,40.2657,33.363
1980-10-10 06:33:28,1,2.3,-6.85,-3.58333,0.455217,1,1,98815.7,64650.3,1700,0.85922176,-3.8277407,254.99632,90.812729,27.8455,328.965,17.1238,16.1625,40.3897,32.6696
1980-10-10 06:34:49,1,1.15,-4.68333,-4.48333,0.467559,1,1,115005.0,65870.1,1700,0.85921723,-3.8278084,254.98454,90.812668,30.0666,323.865,24.6996,15.3316,43.5729,32.9763
1980-10-10 06:36:10,1,0.15,-3.0,-4.86667,0.474049,1,1,106566.0,66168.7,1700,0.85920817,-3.8279448,254.97273,90.812576,30.5186,318.979,28.4476,17.6918,41.9437,33.051
1980-10-10 06:37:31,1,-0.766667,-2.8,-5.46667,0.514242,1,1,122433.0,59367.4,1700,0.85920364,-3.8280125,254.95705,90.812515,31.3503,318.97,28.8174,19.2707,44.9581,31.3063
1980-10-10 06:38:52,1,-0.533333,-0.533333,-4.2,0.31798,1,1,116727.0,74769.3,1700,0.85919911,-3.8280811,254.94528,90.812469,33.0111,320.088,31.0353,17.8729,43.8979,35.1334
1980-10-10 06:40:13,1,-1.16667,1.46667,-1.16667,0.516398,1,1,130794.0,80933.6,1700,0.85918999,-3.8282166,254.93347,90.812378,34.9861,322.614,22.5657,16.8681,46.4677,36.5529
1980-10-10 06:41:34,1,-3.6,3.46667,-0.5,1.01434,1,1,122073.0,80590.1,1700,0.85918546,-3.8282852,254.92169,90.812317,32.7732,325.332,20.0047,14.239,44.8918,36.4753
1980-10-10 06:42:55,1,-4.3,4.88333,-1.13333,0.432371,1,1,124703.0,48974.4,1700,0.85918093,-3.8283529,254.90993,90.812271,25.5114,329.227,13.0092,17.0363,45.3729,28.4343
1980-10-10 06:44:16,1,-3.74286,4.45714,-1.15714,0.700146,1,1,154005.0,70721.8,1700,0.85917181,-3.8284883,254.8981,90.812164,32.9632,326.456,20.7172,17.8197,50.4227,34.1692
1980-10-10 06:45:37,1,-2.98333,1.66667,-3.18333,1.45086,1,1,122962.0,82993.0,1700,0.85916728,-3.828557,254.88243,90.812119,34.923,322.981,30.0727,16.4136,45.055,37.0151
1980-10-10 06:46:58,1,-2.01667,0.4,-4.88333,0.789163,1,1,143518.0,62317.7,1700,0.85916275,-3.8286247,254.87067,90.812073,32.4385,325.485,23.8835,20.0016,48.6756,32.0748
1980-10-10 06:48:19,1,5.24286,-12.1714,3.28571,0.727029,1,1,48037.2,57079.7,1700,0.85915369,-3.8287611,254.85884,90.811966,20.7748,347.326,-9.49033,22.2824,28.1609,30.6972
1980-10-10 06:49:40,1,4.72857,-11.8571,1.87143,0.875517,1,1,56490.1,54922.2,1700,0.85914916,-3.8288288,254.84708,90.81192,21.7435,340.459,-11.0916,22.9042,30.5383,30.1115
1980-10-10 06:51:01,1,5.42857,-11.5857,2.02857,0.430472,1,1,59386.1,59584.1,1700,0.85914004,-3.8289652,254.83525,90.811813,22.7746,345.133,-7.22673,29.718,31.3112,31.3634
1980-10-10 06:52:22,1,5.62857,-13.0143,2.17143,0.42714,1,1,39775.2,58511.5,1700,0.85913551,-3.8290329,254.82349,90.811768,19.5219,342.337,-5.86117,22.0889,25.625,31.0798
1980-10-10 06:53:43,1,5.32857,-12.4143,2.95714,0.534522,1,1,57994.4,50412.7,1700,0.85913098,-3.8291006,254.80782,90.811722,21.6921,341.034,-11.8458,22.3278,30.9422,28.8488
1980-10-10 06:55:04,1,4.72857,-12.1286,4.28571,0.716853,1,1,74499.5,58049.1,1700,0.85912186,-3.829237,254.79599,90.811615,26.3338,346.198,-19.5208,18.5415,35.0699,30.9568
1980-10-10 06:56:25,1,6.17143,-11.3571,5.67143,0.510702,1,1,84031.7,63000.0,1700,0.85911733,-3.8293047,254.78423,90.811569,25.8894,345.598,-19.8447,21.9563,37.246,32.2499
1980-10-10 06:57:46,1,5.87143,-11.2286,6.65714,0.359705,1,1,74435.7,55432.2,1700,0.8591128,-3.8293734,254.77245,90.811508,25.0391,344.168,-22.7614,20.182,35.0549,30.251
1980-10-10 06:59:07,1,6.28333,-8.16667,8.93333,0.243242,1,1,87420.0,61138.6,1700,0.85910374,-3.8295088,254.76064,90.811417,31.2289,349.261,-23.0001,21.7908,37.9895,31.7699
1980-10-10 07:00:28,1,5.85,-8.85,9.13333,0.630256,1,1,75904.2,58648.1,1700,0.85909921,-3.8295774,254.74887,90.811371,29.4413,351.011,-20.7585,25.6954,35.399,31.1161